Theta_e
301 301 302 301 298 294 290 288 286 286 285 284 284 283 283 282 282 281 281 280 280 279 278 278 278 277 277 277 277 276 277 277 278 278 277 277 276 275 275 274 274 274 274
298 299 300 295 292 288 287 286 286 285 284 284 282 282 282 281 281 280 280 279 279 279 278 277 277 277 277 276 276 276 277 277 277 277 277 277 276 275 274 273 273 273 273
297 294 293 289 287 286 286 285 285 284 283 282 281 281 281 280 280 279 279 279 278 278 277 277 276 276 276 276 276 276 277 277 277 277 276 276 275 274 273 273 273 273 272
292 289 288 286 286 285 284 284 284 283 283 282 281 281 280 280 279 279 278 278 278 277 277 276 276 276 276 276 276 276 277 277 277 276 276 275 274 273 273 273 273 272 271
289 286 285 285 284 284 284 284 283 283 282 282 281 281 280 280 280 278 278 278 277 277 276 276 276 275 275 275 276 277 277 277 277 276 275 274 273 273 273 272 271 270 269
286 285 284 284 284 284 283 283 283 282 282 281 281 280 280 280 280 279 278 277 276 276 276 276 275 275 275 274 275 277 277 277 276 275 273 272 272 272 271 269 269 268 268
285 284 284 284 284 283 283 282 282 281 281 280 280 280 279 279 279 279 278 278 277 276 276 275 275 275 274 274 275 276 276 275 274 273 272 272 271 269 268 268 267 267 265
284 284 284 284 283 282 282 281 281 281 280 280 280 279 278 278 278 278 278 278 277 276 276 275 275 274 274 275 276 276 274 272 271 271 271 270 268 268 267 266 265 264 263
284 284 284 283 283 282 281 281 281 280 280 279 279 278 278 278 277 277 278 277 276 276 276 275 274 274 274 275 276 273 271 270 270 270 269 266 266 266 265 264 263 262 262
284 284 284 283 283 282 281 281 281 280 279 279 278 278 278 277 276 276 277 277 276 275 275 274 274 274 275 276 274 272 270 270 269 267 265 265 264 263 263 262 262 261 261
285 284 283 283 282 281 281 280 280 280 279 278 278 277 276 275 275 275 276 276 275 275 275 274 274 274 275 274 273 270 270 269 266 264 263 262 262 261 261 261 260 260 260
285 284 283 282 282 282 281 280 279 279 278 277 276 275 275 275 275 274 275 275 275 274 274 274 274 274 272 271 269 268 268 265 263 262 261 261 261 261 260 260 261 261 260
284 283 282 281 281 282 280 280 279 278 276 276 276 275 274 274 273 274 274 274 275 275 275 274 273 272 270 269 267 265 264 262 261 260 260 260 260 260 260 260 261 260 261
284 283 282 281 281 280 279 279 277 276 276 276 275 274 275 275 274 274 275 275 274 274 274 273 271 270 268 266 265 264 262 261 260 259 258 259 259 259 259 258 258 258 258
288 283 282 281 280 279 278 277 276 275 275 275 275 275 274 273 273 274 274 274 274 272 271 270 269 267 266 266 264 263 261 260 259 259 258 259 259 258 259 258 258 257 257
287 281 281 280 279 278 277 276 275 275 275 275 274 274 272 272 273 273 273 273 272 269 269 267 266 265 264 262 261 261 261 260 259 259 259 259 258 257 258 259 257 256 257
282 281 280 280 279 277 276 275 275 273 273 272 272 272 272 271 271 272 272 270 269 268 267 266 265 263 262 261 260 259 259 259 259 259 259 259 258 258 257 257 256 256 257
281 281 280 279 277 276 275 275 274 274 273 272 271 270 269 269 270 270 269 268 267 266 265 265 264 262 261 260 259 259 258 258 259 259 259 259 259 257 257 256 256 255 256
280 279 278 277 276 275 274 274 273 272 271 270 270 269 269 268 267 267 266 265 265 265 264 264 262 261 260 259 259 258 258 258 258 258 259 259 259 257 257 256 255 255 255
278 277 276 276 275 274 274 273 272 271 270 269 268 268 268 267 267 266 265 265 264 263 262 261 261 261 260 259 259 258 258 258 258 259 259 259 259 257 257 256 256 255 255
277 276 275 274 274 273 272 271 270 270 269 268 267 267 268 266 265 265 265 264 263 262 261 261 261 260 260 259 259 259 258 259 259 259 259 259 258 258 258 257 256 256 255
276 274 273 273 272 271 270 270 270 269 268 267 266 266 265 265 265 264 263 262 262 262 261 260 261 260 260 259 259 259 259 259 259 259 259 258 258 258 258 257 257 257 256
274 274 273 271 271 270 270 269 268 267 267 267 266 266 265 265 264 263 262 262 262 262 261 261 261 261 261 260 260 259 259 259 259 259 258 258 258 258 258 257 257 257 257
274 272 271 271 270 269 268 268 267 267 267 266 265 265 264 263 263 262 262 262 262 262 261 261 261 261 261 261 261 260 260 259 259 259 259 258 258 259 259 258 258 258 258
272 272 271 270 269 269 268 268 267 266 266 265 264 263 263 262 262 262 262 262 261 261 262 261 261 261 260 260 260 260 260 260 259 259 259 259 259 259 259 259 259 259 258
272 271 270 269 269 268 267 267 266 265 264 263 263 263 263 263 263 262 262 262 261 262 261 261 261 261 261 261 261 260 260 260 260 261 260 259 259 260 260 259 259 258 259
Wind_Speed
37 33 31 27 23 24 22 22 20 19 17 15 14 13 12 12 11 10 11 11 10 9 8 7 6 5 6 7 4 5 4 4 8 17 17 20 21 20 20 20 21 20 19
29 30 32 28 23 23 23 21 20 19 17 15 13 12 12 11 10 8 9 8 7 6 6 6 5 3 5 6 6 5 7 8 10 17 20 22 21 21 21 22 20 20 21
27 27 29 26 22 22 21 20 18 17 16 15 12 11 10 9 8 7 6 6 5 4 4 5 5 4 5 8 9 8 9 11 12 17 22 21 21 22 24 20 22 22 25
26 26 26 25 22 21 20 19 17 16 15 13 11 9 8 7 6 5 4 4 3 2 3 3 5 6 7 11 10 10 11 14 14 18 21 23 24 23 23 25 27 29 31
25 25 25 23 22 21 19 17 16 14 12 10 9 8 6 5 4 3 2 2 1 2 3 5 7 7 6 10 10 12 13 15 17 19 21 23 24 24 24 29 30 32 30
25 25 24 23 21 19 17 15 14 12 11 9 8 6 5 3 2 2 1 1 3 5 6 7 8 6 11 12 10 12 13 14 16 19 21 22 23 24 28 29 28 28 19
25 23 22 20 19 16 15 14 12 11 9 7 5 5 3 2 2 2 3 6 7 7 7 7 7 8 14 14 14 14 11 9 15 19 20 20 26 27 29 28 26 26 28
23 22 20 19 17 15 14 12 10 8 6 5 4 3 3 3 3 4 6 9 9 8 7 8 10 13 15 14 16 10 8 14 17 16 17 22 24 25 22 23 25 26 25
23 21 19 17 16 14 12 10 8 6 5 3 3 3 3 3 5 6 6 8 9 10 9 11 11 14 15 17 13 12 16 19 15 19 23 24 20 19 19 21 22 23 24
22 21 18 16 14 12 9 8 6 4 3 3 2 3 5 5 5 5 5 7 11 13 15 13 13 12 15 15 15 20 21 15 18 24 26 23 20 19 17 15 17 20 22
18 17 16 13 11 8 6 5 4 3 3 2 3 4 4 5 5 5 5 8 11 14 15 16 17 15 13 14 17 20 17 19 24 21 20 19 16 16 15 16 17 17 23
18 16 15 13 11 8 7 6 4 4 4 4 4 2 4 6 7 7 8 9 9 13 15 16 15 10 10 13 16 17 16 20 21 20 18 17 17 18 19 21 23 24 26
18 15 14 12 10 6 7 6 4 4 4 2 3 6 6 6 6 7 9 10 9 12 13 10 10 14 15 21 19 15 19 18 17 17 15 16 19 23 25 24 28 29 33
19 15 13 11 9 8 6 4 3 2 1 3 3 4 5 7 9 10 13 15 13 14 14 13 10 16 19 18 21 20 19 17 15 15 16 20 22 23 23 20 23 26 29
17 16 13 10 9 6 4 3 1 1 2 1 2 5 8 11 11 11 12 14 15 4 5 11 18 20 21 22 21 22 21 19 17 18 19 22 22 22 26 23 22 25 21
17 15 13 10 8 6 5 4 2 2 2 2 3 4 6 6 9 10 11 10 5 7 13 16 17 18 19 20 22 24 23 21 20 21 22 22 22 23 27 33 23 20 23
14 14 11 9 8 6 5 5 6 4 5 4 2 4 6 7 9 10 9 7 8 14 15 15 17 18 20 21 22 22 23 22 20 20 22 23 23 25 26 28 26 22 26
10 9 9 8 7 7 5 3 2 2 1 2 4 6 7 8 8 8 9 12 13 13 14 17 19 20 21 22 22 22 22 21 20 20 21 23 24 25 29 28 26 23 25
12 11 10 9 8 6 5 3 1 1 1 3 6 6 7 7 6 8 11 12 13 15 16 18 19 21 21 22 22 22 21 21 20 20 22 23 24 25 30 28 28 29 25
12 11 10 9 8 6 4 3 2 2 2 3 5 7 9 9 12 13 13 15 16 17 18 20 22 23 23 23 23 22 22 22 20 21 22 24 25 26 29 31 29 26 29
10 10 8 8 6 5 4 4 3 2 2 3 5 5 8 11 12 13 15 15 17 19 20 21 23 23 23 23 23 22 22 23 21 21 23 24 26 28 29 31 32 31 28
10 9 8 8 7 6 6 3 2 2 2 4 5 7 9 11 13 14 16 17 19 20 20 22 24 23 22 22 22 22 23 24 23 22 23 25 28 29 30 32 33 32 29
10 10 10 10 8 7 5 4 4 3 5 7 9 10 12 14 16 18 19 20 21 21 20 20 22 22 21 21 20 21 24 24 24 24 25 27 28 30 31 31 32 32 31
11 11 12 10 8 7 5 5 5 5 7 9 11 13 16 17 19 20 20 21 21 20 19 19 20 21 22 22 21 21 23 24 24 25 25 27 28 28 30 31 33 33 33
13 12 11 10 8 7 6 5 5 7 10 12 14 17 18 20 21 21 20 20 21 22 22 21 22 22 23 24 24 24 23 23 24 25 26 24 25 27 29 31 33 32 31
13 12 11 9 8 6 5 5 8 11 13 16 18 20 21 22 22 23 23 24 24 25 26 27 27 27 27 28 27 26 26 26 26 24 24 25 26 27 29 31 29 28 31
Wind_Direction
146 144 139 140 144 136 141 146 141 135 136 130 125 126 119 115 109 104 98 96 92 89 77 64 60 42 34 28 14 2 346 307 286 307 312 320 322 321 321 321 322 322 320
139 144 139 140 144 147 145 142 143 137 132 131 131 130 123 115 109 103 101 99 95 90 73 54 44 18 11 8 360 341 332 321 302 308 315 320 322 323 320 319 318 319 317
147 146 133 137 148 145 144 142 140 133 134 134 133 123 117 112 114 109 98 95 94 77 51 28 12 347 349 357 344 331 329 323 318 315 315 320 322 324 321 321 321 320 319
150 138 137 147 151 147 143 140 137 136 140 138 132 124 122 124 116 110 101 96 73 29 10 354 347 337 345 344 332 322 325 326 319 320 319 323 324 325 324 326 323 324 321
144 143 148 149 148 146 142 139 139 143 143 143 142 142 135 117 134 125 105 49 353 331 331 331 330 336 335 333 322 316 322 324 325 325 323 321 326 331 331 327 321 321 321
151 152 152 149 148 145 141 142 144 146 151 156 155 151 142 135 122 69 89 305 334 333 321 320 329 318 325 329 322 317 318 323 327 326 322 321 326 329 325 323 320 322 320
156 154 152 152 148 146 148 148 152 155 157 157 165 174 180 172 186 239 314 344 330 318 311 311 316 315 331 333 338 318 308 321 329 327 322 327 325 325 323 322 319 316 312
159 156 156 156 153 154 156 156 156 157 160 174 186 207 212 220 232 291 310 303 308 314 309 315 321 325 335 331 326 315 320 331 332 330 325 320 319 320 319 317 315 314 314
164 162 161 162 161 162 160 158 159 166 176 195 213 241 272 298 287 274 272 284 302 309 311 320 324 334 337 331 331 338 335 334 326 318 317 319 322 323 329 325 328 328 323
169 168 166 166 169 162 161 165 169 176 186 219 252 294 291 275 271 269 277 296 303 313 321 331 333 328 329 330 348 337 334 330 321 320 322 325 331 334 334 332 324 317 313
171 170 166 165 163 159 160 181 181 196 211 233 256 263 273 292 305 305 303 305 314 318 319 320 326 326 327 332 330 328 327 319 319 326 328 330 332 330 328 327 320 312 304
170 171 167 167 164 161 186 184 194 211 230 231 236 289 330 324 325 315 312 309 315 305 311 315 312 314 333 333 331 329 327 323 328 330 332 332 329 327 326 327 331 326 319
162 165 166 163 167 179 184 191 205 225 221 238 356 353 345 337 333 330 330 335 338 323 318 302 290 307 321 324 327 335 329 332 332 331 328 324 325 327 331 334 337 333 329
163 163 170 171 174 180 183 190 204 217 308 8 356 343 347 348 350 358 354 340 332 310 296 298 309 320 326 330 334 336 336 334 329 324 320 324 328 331 331 331 325 329 323
172 166 176 180 181 173 180 183 183 336 2 49 16 358 348 355 360 345 340 337 335 328 315 321 327 330 331 332 333 334 335 336 332 330 328 328 329 332 334 334 332 327 314
165 172 177 179 178 178 182 170 117 87 98 84 55 22 347 349 343 343 342 341 33 6 333 332 329 330 332 334 335 333 332 332 330 329 328 328 327 330 330 334 331 322 312
169 171 174 178 179 176 178 175 177 126 97 76 22 342 360 345 350 348 355 350 345 324 332 329 330 333 332 330 328 325 322 324 322 324 326 327 327 327 328 326 325 320 315
156 159 163 163 164 169 170 158 127 85 42 308 322 354 355 0 359 357 348 323 327 333 334 331 330 327 325 324 324 322 321 321 320 321 321 323 326 326 325 322 318 311 312
150 150 153 156 155 157 153 140 94 63 18 346 350 4 359 354 359 341 332 338 336 332 329 324 324 323 322 323 324 322 320 319 317 316 318 320 323 325 322 318 314 312 308
144 142 143 146 147 143 137 129 131 103 35 10 358 10 359 344 338 340 339 335 330 326 325 322 322 321 322 323 322 320 318 319 317 315 314 316 319 320 318 319 315 309 311
133 136 139 131 125 130 131 119 95 58 34 14 3 8 353 327 332 330 328 326 322 319 319 317 318 319 321 321 321 319 316 316 314 312 311 312 315 315 316 317 317 317 309
135 126 122 121 123 123 119 108 100 63 30 12 356 344 333 331 327 325 323 322 320 318 319 317 318 320 322 321 318 314 311 310 312 313 310 309 311 312 314 316 319 319 314
127 129 128 128 126 117 109 98 73 42 13 351 337 332 330 327 325 324 323 323 320 319 319 316 316 317 319 315 311 307 304 306 308 307 305 306 307 309 311 313 317 317 316
127 129 129 124 120 113 95 70 40 6 345 335 329 327 325 324 323 324 323 321 318 318 318 315 312 311 311 310 308 305 303 304 304 303 302 300 302 305 308 310 314 315 316
125 121 114 107 99 86 66 36 2 343 333 327 325 325 325 325 324 324 324 321 319 317 317 314 312 310 309 308 307 307 306 304 301 302 299 298 299 304 304 307 311 315 315
113 108 99 90 76 57 28 357 339 330 327 328 328 327 326 324 323 323 322 321 319 318 316 315 313 312 310 308 308 307 304 302 300 299 300 299 300 301 303 304 306 302 306